www.pogodaiklimat.ru

Погода и климат >> Архив погоды >> Греция >> Триполис


ПОГОДА в Триполисе

  • Прогноз погоды в Триполисе
  • Монитор погоды в Триполисе

АРХИВ ПОГОДЫ в Триполисе

Время (UTC), дата Ветер
(напр.,м/с)
 
Видим.   Явления Облачность Т
(С)
Тd
(С)
f
(%)
Тe
(С)
Тes
(С)
Комфортность P
(гПа)
Po
(гПа)
Тmin
(С)
Tmax
(С)
R
(мм)
R24
(мм)
S
(см)
00 18.03 штиль 0
{1}
н/о н/о +3.7 +1.0 83 +3 +3 1020.9 942.2
03 18.03 штиль 0
{2}
н/о н/о +1.5 +0.2 91 0 0 1020.7 941.4
06 18.03 штиль 0
{2}
10 км ясно +4.4 +1.8 83 +3 +6 1020.8 942.2 +0.4 96
09 18.03
{3}
н/о н/о +13.8 +4.0 52 1017.7 941.9
12 18.03 Ю 6
{9}
н/о н/о +16.5 +5.0 46 +16 +16 1015.8 940.8
15 18.03 ЮЗ 6
{9}
н/о н/о +15.5 +5.8 52 +14 +14 1015.3 940.1
18 18.03 штиль 0
{7}
10 км ясно +9.2 +5.3 77 +9 +9 1018.4 941.3 +17.0
21 18.03
{2}
н/о н/о +5.5 +4.2 91 1020.1 941.9
00 19.03 штиль 0
{2}
н/о н/о +2.8 +2.4 97 +2 +2 1020.7 941.7
03 19.03 З 1
{2}
н/о н/о +1.3 +1.0 98 -1 -1 1020.3 941.0
06 19.03 штиль 0
{2}
10 км ясно +5.0 +3.8 92 +4 +7 1019.6 941.3 -0.2 98
09 19.03
{3}
н/о н/о +14.7 +1.0 39 1016.9 941.4
12 19.03 Ю 3
{5}
н/о н/о +19.1 +1.2 30 +19 +19 1014.5 940.3
15 19.03 ЮВ 5
{7}
н/о н/о +17.5 +2.2 36 +17 +17 1014.7 940.0
18 19.03 Ю 3
{7}
10 км ясно +11.0 +6.5 74 +9 +9 1018.9 942.2 +19.3
21 19.03 штиль 0
{4}
н/о н/о +7.0 +5.3 89 +6 +6 1020.9 943.1
00 20.03 штиль 0
{2}
н/о н/о +5.5 +4.7 95 +4 +4 1021.3 943.1
03 20.03 С 1
{1}
н/о н/о +4.3 +3.9 97 +4 +4 1021.3 942.7
06 20.03 штиль 0
{3}
10 км 10/0 2000 м
[Ac cuf Cs]
+5.0 +4.8 99 +4 +5 1021.9 943.5 +3.7 106
09 20.03 С 5
{9}
н/о н/о +15.1 +3.9 47 +14 +14 1019.7 944.1
12 20.03 С 6
{9}
н/о н/о +14.8 +5.7 54 +13 +13 1019.6 943.9
15 20.03 СВ 3
{8}
н/о н/о +13.9 +5.6 57 +13 +13 1019.6 943.7
18 20.03 С 4
{11}
10 км 9/0
[Cs]
+10.4 +5.4 71 +8 +8 1022.4 945.4 +15.6
21 20.03 СВ 4
{8}
н/о н/о +11.0 +5.1 67 +9 +9 1023.7 946.7
00 21.03 СВ 6
{11}
н/о н/о +11.0 +5.1 67 +8 +8 1023.3 946.4
03 21.03 С 7
{12}
н/о н/о +9.7 +4.8 71 +6 +6 1022.9 945.6
06 21.03 СВ 7
{13}
10 км 1/0 2000 м
[Ac lent]
+10.8 +3.2 59 +8 +8 1023.7 946.6 +8.5 106
09 21.03 С 9
{14}
10 км 1/0
[Ci fib]
+13.6 -0.9 37 +11 +13 1023.7 947.4
12 21.03 С 6
{12}
10 км 3/0
[Cs]
+15.4 +1.0 38 +14 +18 1022.2 946.5
15 21.03 С 6
{12}
н/о н/о +13.9 +1.2 42 +12 +12 1022.6 946.4
18 21.03 С 5
{11}
10 км ясно +9.2 +2.6 63 +6 +6 1025.5 947.9 +16.0
00 22.03 С 5
{9}
н/о н/о +8.0 +1.5 63 +5 +5 1026.9 948.9
03 22.03
{9}
н/о н/о +6.7 +1.2 68 1026.6 948.2
06 22.03 С 5
{8}
10 км 1/1 600 м
[Cu med, cong]
+9.2 +1.7 59 +6 +8 1026.5 948.8 +6.0 106
09 22.03 С 8
{11}
10 км 3/3 600 м
[Cu hum]
+12.2 +2.2 50 +9 +11 1024.9 948.2
12 22.03 СВ 7
{13}
10 км 4/3 600 м
[Cu hum Ac cuf]
+14.0 +1.8 44 +12 +15 1023.0 946.8
15 22.03 С 5
{10}
н/о н/о +12.5 +2.1 49 +11 +11 1022.2 945.7
18 22.03 С 6
{9}
10 км ясно +7.8 +1.7 65 +4 +4 1023.6 945.8 +14.4
21 22.03 СВ 4
{8}
н/о н/о +6.5 0.0 63 +3 +3 1024.2 946.0
00 23.03 СВ 4
{8}
н/о н/о +6.0 -1.0 61 +3 +3 1024.1 945.8
03 23.03 С 5
{9}
н/о н/о +6.1 -0.8 61 +2 +2 1022.3 944.1
06 23.03 С 7
{10}
10 км ясно +8.6 -0.2 54 +5 +6 1020.8 943.4 +4.8 104
09 23.03 С 6
{13}
н/о н/о +13.0 -1.4 37 +11 +11 1019.6 943.4
12 23.03 СВ 5
{12}
н/о н/о +14.4 -0.1 37 +13 +13 1018.7 943.0
15 23.03 СВ 6
{10}
н/о н/о +14.0 0.0 38 +12 +12 1017.6 941.9
18 23.03 СВ 6
{10}
н/о н/о +10.1 +0.6 52 +7 +7 1019.6 942.7 +14.9
21 23.03 СВ 3
{8}
н/о н/о +9.5 0.0 51 +8 +8 1020.0 942.9
00 24.03 нст 1
{9}
н/о н/о +8.0 +0.7 60 +8 +8 1020.3 942.8
03 24.03 С 5
{8}
н/о н/о +8.4 +2.1 65 +5 +5 1020.5 943.1
06 24.03 СВ 4
{10}
н/о н/о +8.9 +2.2 63 +6 +6 1020.6 943.3 +7.3
09 24.03 С 7
{11}
н/о н/о +12.2 +2.4 51 +10 +10 1020.1 943.7
12 24.03 СВ 7
{14}
н/о н/о +13.7 -0.1 39 +12 +12 1018.8 942.9
15 24.03 СВ 4
{11}
н/о н/о +13.3 +0.7 42 +12 +12 1018.5 942.5
18 24.03 нст 3
{8}
н/о н/о +8.5 -0.1 55 +7 +7 1020.1 942.7 +14.6
21 24.03
{5}
н/о н/о +5.3 -0.1 68 1021.0 942.7

 

Местоположение метеостанции Триполис (Греция): широта 37.53 долгота 22.40 высота над уровнем моря 652 м.

В архиве по умолчанию представлена погода в Триполисе за последнюю неделю. Архивные данные за месяц целиком и за предыдущие месяцы, начиная с января 2011 года, Вы можете получить, выбрав интересующий диапазон дат из раскрывающегося списка и нажав кнопку "Ввод!".


*Определитесь, кто Вы:
робот инопланетянин человек

Внимание! Время в таблицах - всемирное. Для получения местного времени необходимо прибавить поправку, которая равна 2 ч.

Смотрите также архив погоды в соседних городах и на ближайших метеорологических станциях:

Погода в Астросе (Греция) (31 км)
Погода в Аргосе (Греция) (34 км)
Погода в Каламате (Греция) (61 км)
Погода в Мефони (Греция) (100 км)
Погода в Андравиде (Греция) (108 км)
Погода в Элефисисе (Греция) (118 км)
Погода в Афинах (Греция) (124 км)
Погода в Татое (Греция) (137 км)
Погода в Элефтериос Венизелос (Греция) (141 км)
Погода на Китире (Греция) (150 км)

Пояснения к столбцам:

Ветер - указаны скорость ветра в м/с - средняя за 10 мин, порывы в срок и между сроками (в фигурных скобках) и направление, откуда дует ветер: С - северный, СВ - северо-восточный, В - восточный, ЮВ - юго-восточный, Ю - южный, ЮЗ - юго-западный, З - западный, СЗ - северо-западный.
Видимость - горизонтальная дальность видимости в метрах или километрах. При видимости от 1 до 10 км при отсутствии осадков обычно наблюдается дымка, при ухудшении видимости до 1 км и менее - туман. В сухую погоду видимость может ухудшаться дымом, пылью или мглою.
Явления - указаны атмосферные явления, наблюдавшиеся в срок или в последний час перед сроком; фигурными скобками обозначены явления, наблюдавшиеся между сроками (за 1-3 часа до срока); квадратными скобками обозначены град или гололедные отложения с указанием их диаметра в мм.
Облачность - указаны через наклонную черту общая и нижняя облачность в баллах и высота нижней границы облаков в метрах; квадратными скобками обозначены формы облаков: Ci - перистые, Cs - перисто-слоистые, Cc - перисто-кучевые, Ac - высококучевые, As - высокослоистые, Sc - слоисто-кучевые, Ns - слоисто-дождевые, Cu - кучевые, Cb - кучево-дождевые. Подробнее классификацию облаков см. в Атласе облаков (PDF).
T - Температура воздуха - температура, измеренная на высоте 2 м над землей.
Td - Температура точки росы - температура, при понижении до которой содержащийся в воздухе водяной пар достигнет насыщения.
f - Относительная влажность воздуха - влажноcть воздуха, измеренная на высоте 2 м над землей.
Te - Эффективная температура - температура, которую ощущает одетый по сезону человек в тени. Характеристика душности погоды. При расчете учитывается влияние влажности воздуха и скорости ветра на теплоощущения человека.
Tes - Эффективная температура на солнце - температура, которую ощущает человек, с поправкой на солнечный нагрев. Характеристика знойности погоды. Зависит от высоты солнца над горизонтом, облачности и скорости ветра. Ночью, в пасмурную погоду, а также при ветре 12 м/с и более поправка равна нулю.
P - Атмосферное давление - приведенное к уровню моря атмосферное давление.
Po - Атмосферное давление - измеренное на уровне метеостанции атмосферное давление.
Tmin - Минимальная температура - минимум температуры воздуха на высоте 2 м над землей.
Tmax - Максимальная температура - максимум температуры воздуха на высоте 2 м над землей.
R - Количество осадков - Количество выпавших осадков за период времени, мм. При наведении курсора мыши на число - период времени, за который выпало указанное количество осадков.
R24 - Количество осадков - Количество выпавших осадков за 24 часа, мм.
S - Снежный покров - Высота снежного покрова, см. При наведении курсора мыши на число - состояние снежного покрова и степень покрытия местности в баллах.